COSMOS 2251 DEB, 46271

Orbit data source: Space-Track

COSMOS 2251 DEB, 46271 is space debris in LEO originally from a launch on Wed, 16 Jun 1993 UTC launched from the Plesetsk Missile And Space Complex (PKMTR). The debris from Iridium 33, an American commercial communications satellite, has been tracked extensively since its accidental collision with the defunct Russian satellite Cosmos 2251 in 2009. This event, occurring at high speed in low Earth orbit (LEO), generated thousands of pieces of space debris, significantly increasing the risk of further collisions. The Iridium 33 debris cloud has impacted space traffic management and orbital debris mitigation strategies, making it a subject of ongoing study in space situational awareness.

Loading next visibility...
Identifier
46271, 1993-036BWT
Orbit
LEO
Country
Flag of CISCIS
Related business
Manufacturer
Unknown
Mission
Spacecraft
Bus & Motor
Unknown
Mass
Unknown
Launch date (UTC)
1993-06-16 (33 years ago)
Launch vehicle
Unknown
Launch site
Plesetsk Missile And Space Complex (PKMTR)
Object type
Payload
Rocket body
Debris
Shape & HBR
Unknown shape, 0.1 m
Radar Cross Section
Small (<0.1 m²)

Expand to show TLE details & history
Last TLE update: 5 days ago

TLE from 5 days ago
0 COSMOS 2251 DEB
1 46271U 93036BWT 26032.55940990  .00001355  00000-0  34201-3 0  9992
2 46271  74.0466 342.6091 0038702  89.4799 271.0797 14.51576619853790
Epoch: 2026-02-01T13:25Z
TLE epoch observation values (Epoch: 2026-02-01T13:25:33.015Z)
Latitude
0.00001°
Longitude
9.45423°
Altitude
722.723 km
Speed
7.494 km/s
True Right ascension
22h 50m 26s
True Declination
0° 00' 00"
Sunlit
Object was in daylight at epoch
Visualization orbit readout
Latitude
Unknown
Longitude
Unknown
Altitude
Unknown
Speed
Unknown
Apparent Right ascension
Unknown
Apparent Declination
Unknown
Sunlit
N/A
Visualization observer readout
Local Sidereal Time
00:48:13
Azimuth
Unknown
Elevation
Unknown
Doppler factor
Unknown
Orbital elements
Apogee altitude
745.574 km
Perigee altitude
690.646 km
Semi-major axis
7,096.247 km
Eccentricity
0.00387
Inclination
74.0466°
RAAN
342.6091°
Arg. of periapsis
89.4799°
True anomaly
270.63625°
Mean anomaly
271.0797°
Eccentric anomaly
270.85798°
Mean motion
3.63078 °/min
Orbital period
99.15 mins
BSTAR
0.00034201
Loading maneuver chart data...
Computing Atmospheric mass density...

Documentation

Showing up to 5 results
|